Location: Bremen
(53.0793°N, 8.8017°E)
Time: 23:07:51
(UTC+02:00)

Altair - Pass Details

Date: 22 April 2024
Orbit: 1501 x 1682 km, 47.2° (Epoch: 19 May)

Event Time Altitude Azimuth Distance (km) Brightness Sun altitude
Rises 20:39:49 0° 237° (WSW) 4,918 10.7 -1.1°
Reaches altitude 10° 20:43:05 10° 233° (SW) 3,920 10.1 -1.5°
Maximum altitude 20:52:41 53° 160° (SSE) 1,942 7.9 -2.8°
Drops below altitude 10° 21:02:00 10° 88° (E) 3,806 9.0 -4.1°
Sets 21:05:07 0° 84° (E) 4,767 9.6 -4.5°
